Ana Sayfa
METAR-TAF:

METAR-TAF

Havaalanları :

Ashland, Kentucky, Amerika Birleşik Devletleri

Enlem: 38-33-16N, Boylam: 082-44-17W, yükseklik: 166 m

Güncel hava durumu gözlemi

Rapor saat 03:56 UTC de 40 dakika önce yapıldı.
Sakin rüzgar
Sıcaklık -1°C
Nem 93%
Basınç 1030 hPa
Görüş mesafesi: 16.1 km
Açık gökyüzü

METAR: KDWU 040356Z AUTO 00000KT 10SM CLR M01/M02 A3042 RMK AO2 SLP303 T10111022 401611011 FZRANO

Saat: 23:36 (04:36 UTC)


TAF: eksik

4.000'den fazla havaalanı için hava durumu gözlemleri ve tahminleri (METAR ve TAF raporları).

Kullanılabilir istasyonlar harita üzerinde sarı ve kırmızı noktalarla gösterilir.

İstasyonun adını görmek için fareyi noktanın üzerinde gezdirin.

Sonrasında hava gözlem ve tahminlerini görmek için tıklayın.

Haritayı değiştirmek için: yaklaştırmak için siyah artı işaretli yeşil düğmeye ve uzaklaştırmak için de eksi işaretli düğmeye hızla tıklayın; bitişik haritalar için yeşil okları kullanın.


METAR-TAF: